Valle del Fuerte International Airport

Jump to: basic info | weather | frequencies | runways | comments

Related pages: nearby airports | nearby navaids | notams | map

Basic information (top)

Codes: LMM MMLM
Location: lon 25.685200, lat -109.081001, elev 16 ft / 5 m msl
Status: medium_airport
Scheduled airline service: yes
Links: Wikipedia Mobile

Weather (top)

Current conditions (rec'd 2015/03/28 04:40Z):

MMLM 280440Z 33003KT 10SM SKC 22/15 A2996

Airport forecast (rec'd 2015/03/26 12:10Z):

TAF COR MMLM 261403Z 2612/2706 00000KT 0SM FG VV000 
     FM261500 18004KT 1/2SM FG VV003 
     FM261530 20005KT 3SM BR BKN010 
     FM261600 23010KT P6SM SCT250 
     FM270200 00000KT P6SM SCT250

Frequencies (top)

Verify before use: may be inaccurate or out of date.

TWR: 118.8 MHz (MOCHIS TWR)

Runways (top)

09/27: 6,562 x 148 ft (2,000 x 45 m) — paved — lighted

Latest comments (top)

No comments yet for Valle del Fuerte International Airport

More... (top)

See also NOTAMs and nearby airports and navaids, or visit the Valle del Fuerte International Airport page at the main OurAirports website..